,,Stat6,,Stat2,,Stat8,,Stat9,,Stat10,,Wind1,,Wind1,
time,status,PA1M_AVG,status,PR1M_SUM,status,RH1M_AVG,status,SR1M_AVG,status,TA1M_AVG,status,W1dAve1m,status,W1sAve1m,
2008-03-21, 00:00:00,VALID,915.744,VALID,0,VALID,100,VALID,0.0509425,VALID,19.6402,VALID,112,VALID,0,
2008-03-21, 00:01:00,VALID,915.76,VALID,0,VALID,100,VALID,0.0679233,VALID,19.6499,VALID,112,VALID,0,
2008-03-21, 00:02:00,VALID,915.761,VALID,0,VALID,100,VALID,0.0679233,VALID,19.6399,VALID,112,VALID,0,
2008-03-21, 00:03:00,VALID,915.763,VALID,0,VALID,100,VALID,0.0509425,VALID,19.6499,VALID,112,VALID,0,
2008-03-21, 00:04:00,VALID,915.755,VALID,0,VALID,100,VALID,0.0849042,VALID,19.6531,VALID,112,VALID,0,
2008-03-21, 00:05:00,VALID,915.751,VALID,0,VALID,100,VALID,0.0339617,VALID,19.6696,VALID,112,VALID,0,
2008-03-21, 00:06:00,VALID,915.754,VALID,0,VALID,100,VALID,0,VALID,19.6661,VALID,112,VALID,0,
2008-03-21, 00:07:00,VALID,915.758,VALID,0,VALID,100,VALID,0.0339617,VALID,19.6499,VALID,112,VALID,0,
2008-03-21, 00:08:00,VALID,915.768,VALID,0,VALID,100,VALID,0.0509425,VALID,19.6179,VALID,118,VALID,0,
2008-03-21, 00:09:00,VALID,915.768,VALID,0,VALID,100,VALID,0,VALID,19.5922,VALID,120,VALID,0,
2008-03-21, 00:10:00,VALID,915.77,VALID,0,VALID,100,VALID,0,VALID,19.566,VALID,120,VALID,0,
2008-03-21, 00:11:00,VALID,915.775,VALID,0,VALID,100,VALID,0.0169808,VALID,19.5466,VALID,130,VALID,0,
2008-03-21, 00:12:00,VALID,915.783,VALID,0,VALID,100,VALID,0,VALID,19.5296,VALID,137,VALID,0,
2008-03-21, 00:13:00,VALID,915.782,VALID,0,VALID,100,VALID,0.0339617,VALID,19.5301,VALID,148,VALID,0,
2008-03-21, 00:14:00,VALID,915.781,VALID,0,VALID,100,VALID,0.0339617,VALID,19.5393,VALID,160,VALID,0,
2008-03-21, 00:15:00,VALID,915.774,VALID,0,VALID,100,VALID,0.0679233,VALID,19.5426,VALID,164,VALID,0,
2008-03-21, 00:16:00,VALID,915.763,VALID,0,VALID,100,VALID,0.0679233,VALID,19.5493,VALID,162,VALID,0,
2008-03-21, 00:17:00,VALID,915.76,VALID,0,VALID,100,VALID,0.0849042,VALID,19.5393,VALID,157,VALID,0,
2008-03-21, 00:18:00,VALID,915.755,VALID,0,VALID,100,VALID,0.0169808,VALID,19.5361,VALID,157,VALID,0,
2008-03-21, 00:19:00,VALID,915.739,VALID,0,VALID,100,VALID,-0.0509425,VALID,19.5341,VALID,159,VALID,0,
2008-03-21, 00:20:00,VALID,915.723,VALID,0,VALID,100,VALID,-0.0509425,VALID,19.5341,VALID,159,VALID,0,
2008-03-21, 00:21:00,VALID,915.724,VALID,0,VALID,100,VALID,-0.101885,VALID,19.554,VALID,159,VALID,0,
2008-03-21, 00:22:00,VALID,915.713,VALID,0,VALID,100,VALID,-0.0679233,VALID,19.5568,VALID,159,VALID,0,
2008-03-21, 00:23:00,VALID,915.693,VALID,0,VALID,100,VALID,-0.0509425,VALID,19.5638,VALID,159,VALID,0,
2008-03-21, 00:24:00,VALID,915.688,VALID,0,VALID,100,VALID,-0.0509425,VALID,19.56,VALID,159,VALID,0,
2008-03-21, 00:25:00,VALID,915.666,VALID,0,VALID,100,VALID,-0.0679233,VALID,19.5705,VALID,159,VALID,0,
2008-03-21, 00:26:00,VALID,915.654,VALID,0,VALID,100,VALID,-0.0849042,VALID,19.5738,VALID,159,VALID,0,
2008-03-21, 00:27:00,VALID,915.659,VALID,0,VALID,100,VALID,-0.0849042,VALID,19.5768,VALID,159,VALID,0,
2008-03-21, 00:28:00,VALID,915.659,VALID,0,VALID,100,VALID,-0.0679233,VALID,19.567,VALID,159,VALID,0,
2008-03-21, 00:29:00,VALID,915.651,VALID,0,VALID,100,VALID,-0.0509425,VALID,19.5316,VALID,158,VALID,0.472284,
2008-03-21, 00:30:00,VALID,915.653,VALID,0,VALID,100,VALID,-0.0509425,VALID,19.5446,VALID,147,VALID,0.184411,
2008-03-21, 00:31:00,VALID,915.634,VALID,0,VALID,100,VALID,-0.0849042,VALID,19.5316,VALID,132,VALID,0,
2008-03-21, 00:32:00,VALID,915.618,VALID,0,VALID,100,VALID,-0.0509425,VALID,19.5119,VALID,129,VALID,0,
2008-03-21, 00:33:01,VALID,915.588,VALID,0,VALID,100,VALID,-0.0339617,VALID,19.5021,VALID,129,VALID,0,
2008-03-21, 00:34:00,VALID,915.583,VALID,0,VALID,100,VALID,-0.101885,VALID,19.4929,VALID,129,VALID,0,
2008-03-21, 00:35:00,VALID,915.568,VALID,0,VALID,100,VALID,-0.118866,VALID,19.4637,VALID,129,VALID,0,
2008-03-21, 00:36:00,VALID,915.535,VALID,0,VALID,100,VALID,-0.0849042,VALID,19.4567,VALID,129,VALID,0,
2008-03-21, 00:37:01,VALID,915.526,VALID,0,VALID,100,VALID,-0.101885,VALID,19.4405,VALID,129,VALID,0,
2008-03-21, 00:38:01,VALID,915.517,VALID,0,VALID,100,VALID,-0.0339617,VALID,19.4465,VALID,132,VALID,0,
2008-03-21, 00:39:00,VALID,915.507,VALID,0,VALID,100,VALID,-0.0509425,VALID,19.4565,VALID,132,VALID,0,
2008-03-21, 00:40:00,VALID,915.507,VALID,0,VALID,100,VALID,-0.0679233,VALID,19.4532,VALID,132,VALID,0,
2008-03-21, 00:41:00,VALID,915.505,VALID,0,VALID,100,VALID,-0.0849042,VALID,19.4632,VALID,132,VALID,0,
2008-03-21, 00:42:00,VALID,915.506,VALID,0,VALID,100,VALID,-0.0849042,VALID,19.4567,VALID,132,VALID,0,
2008-03-21, 00:43:00,VALID,915.505,VALID,0,VALID,100,VALID,-0.0509425,VALID,19.44,VALID,132,VALID,0,
2008-03-21, 00:44:00,VALID,915.492,VALID,0,VALID,100,VALID,-0.0849042,VALID,19.4342,VALID,132,VALID,0,
2008-03-21, 00:45:00,VALID,915.484,VALID,0,VALID,100,VALID,-0.0509425,VALID,19.4041,VALID,132,VALID,0,
2008-03-21, 00:46:00,VALID,915.479,VALID,0,VALID,100,VALID,-0.0339617,VALID,19.3943,VALID,132,VALID,0,
2008-03-21, 00:47:00,VALID,915.47,VALID,0,VALID,100,VALID,-0.0679233,VALID,19.3911,VALID,132,VALID,0,
2008-03-21, 00:48:00,VALID,915.464,VALID,0,VALID,100,VALID,-0.0679233,VALID,19.3973,VALID,134,VALID,0,
2008-03-21, 00:49:00,VALID,915.463,VALID,0,VALID,100,VALID,0.0339617,VALID,19.3998,VALID,134,VALID,0,
2008-03-21, 00:50:00,VALID,915.444,VALID,0,VALID,100,VALID,0.0169808,VALID,19.3899,VALID,134,VALID,0,
2008-03-21, 00:51:01,VALID,915.438,VALID,0,VALID,100,VALID,0.0339617,VALID,19.3637,VALID,134,VALID,0,
2008-03-21, 00:52:00,VALID,915.432,VALID,0,VALID,100,VALID,0.0339617,VALID,19.3442,VALID,134,VALID,0,
2008-03-21, 00:53:00,VALID,915.424,VALID,0,VALID,100,VALID,0.0169808,VALID,19.3088,VALID,134,VALID,0,
2008-03-21, 00:54:01,VALID,915.413,VALID,0,VALID,100,VALID,0.0339617,VALID,19.2893,VALID,134,VALID,0,
2008-03-21, 00:55:00,VALID,915.401,VALID,0,VALID,100,VALID,0.0339617,VALID,19.2895,VALID,134,VALID,0,
2008-03-21, 00:56:00,VALID,915.386,VALID,0,VALID,100,VALID,0.0339617,VALID,19.302,VALID,134,VALID,0,
2008-03-21, 00:57:00,VALID,915.378,VALID,0,VALID,100,VALID,0.0339617,VALID,19.3444,VALID,151,VALID,0,
2008-03-21, 00:58:01,VALID,915.365,VALID,0,VALID,100,VALID,0,VALID,19.3871,VALID,155,VALID,0,
2008-03-21, 00:59:00,VALID,915.372,VALID,0,VALID,100,VALID,0.0339617,VALID,19.3864,VALID,155,VALID,0,
2008-03-21, 01:00:00,VALID,915.357,VALID,0,VALID,100,VALID,0.0169808,VALID,19.3901,VALID,155,VALID,0,
2008-03-21, 01:01:00,VALID,915.37,VALID,0,VALID,100,VALID,0.0339617,VALID,19.3771,VALID,156,VALID,0,
2008-03-21, 01:02:01,VALID,915.355,VALID,0,VALID,100,VALID,0.0679233,VALID,19.3574,VALID,156,VALID,0,
2008-03-21, 01:03:00,VALID,915.365,VALID,0,VALID,100,VALID,0.0339617,VALID,19.3539,VALID,156,VALID,0,
2008-03-21, 01:04:01,VALID,915.339,VALID,0,VALID,100,VALID,0.0509425,VALID,19.328,VALID,146,VALID,0.0228924,
2008-03-21, 01:05:01,VALID,915.327,VALID,0,VALID,100,VALID,0.0509425,VALID,19.3088,VALID,144,VALID,0.0895712,
2008-03-21, 01:06:00,VALID,915.323,VALID,0,VALID,100,VALID,0.0339617,VALID,19.2796,VALID,144,VALID,0.0853659,
2008-03-21, 01:07:00,VALID,915.303,VALID,0,VALID,100,VALID,0.0849042,VALID,19.2659,VALID,146,VALID,0.508721,
2008-03-21, 01:08:01,VALID,915.299,VALID,0,VALID,100,VALID,0.0339617,VALID,19.2501,VALID,152,VALID,0.23056,
2008-03-21, 01:09:01,VALID,915.268,VALID,0,VALID,100,VALID,0.0339617,VALID,19.2471,VALID,152,VALID,0,
2008-03-21, 01:10:00,VALID,915.242,VALID,0,VALID,100,VALID,0.0339617,VALID,19.211,VALID,152,VALID,0,
2008-03-21, 01:11:00,VALID,915.243,VALID,0,VALID,100,VALID,0.0679233,VALID,19.2045,VALID,144,VALID,0,
2008-03-21, 01:12:00,VALID,915.237,VALID,0,VALID,100,VALID,0.0679233,VALID,19.1755,VALID,135,VALID,0,
2008-03-21, 01:13:00,VALID,915.235,VALID,0,VALID,100,VALID,0.0509425,VALID,19.1528,VALID,135,VALID,0,
2008-03-21, 01:14:00,VALID,915.23,VALID,0,VALID,100,VALID,0.0169808,VALID,19.1236,VALID,120,VALID,0,
2008-03-21, 01:15:01,VALID,915.224,VALID,0,VALID,100,VALID,0.0169808,VALID,19.0884,VALID,116,VALID,0,
2008-03-21, 01:16:00,VALID,915.22,VALID,0,VALID,100,VALID,0.0169808,VALID,19.069,VALID,107,VALID,0,
2008-03-21, 01:17:00,VALID,915.202,VALID,0,VALID,100,VALID,0.0509425,VALID,19.0365,VALID,109,VALID,0,
2008-03-21, 01:18:00,VALID,915.203,VALID,0,VALID,100,VALID,0.0679233,VALID,19.0071,VALID,110,VALID,0,
2008-03-21, 01:19:00,VALID,915.188,VALID,0,VALID,100,VALID,0.0169808,VALID,18.9841,VALID,111,VALID,0,
2008-03-21, 01:20:00,VALID,915.164,VALID,0,VALID,100,VALID,0.0339617,VALID,18.9746,VALID,113,VALID,0,
2008-03-21, 01:21:01,VALID,915.147,VALID,0,VALID,100,VALID,0.0509425,VALID,18.9719,VALID,113,VALID,0,
2008-03-21, 01:22:01,VALID,915.14,VALID,0,VALID,100,VALID,0.0509425,VALID,18.9515,VALID,113,VALID,0,
2008-03-21, 01:23:01,VALID,915.118,VALID,0,VALID,100,VALID,0.0679233,VALID,18.9357,VALID,115,VALID,0,
2008-03-21, 01:24:01,VALID,915.108,VALID,0,VALID,100,VALID,0,VALID,18.926,VALID,117,VALID,0,
2008-03-21, 01:25:01,VALID,915.112,VALID,0,VALID,100,VALID,0.0679233,VALID,18.9227,VALID,117,VALID,0,
2008-03-21, 01:26:01,VALID,915.09,VALID,0,VALID,100,VALID,0.0169808,VALID,18.9327,VALID,136,VALID,0,
2008-03-21, 01:27:01,VALID,915.082,VALID,0,VALID,100,VALID,0.0339617,VALID,18.9552,VALID,136,VALID,0,
2008-03-21, 01:28:01,VALID,915.065,VALID,0,VALID,100,VALID,0.0679233,VALID,18.9322,VALID,136,VALID,0,
2008-03-21, 01:29:01,VALID,915.058,VALID,0,VALID,100,VALID,0.0339617,VALID,18.9163,VALID,117,VALID,0,
2008-03-21, 01:30:01,VALID,915.068,VALID,0,VALID,100,VALID,0.0339617,VALID,18.9033,VALID,115,VALID,0.049782,
2008-03-21, 01:31:01,VALID,915.055,VALID,0,VALID,100,VALID,0.0169808,VALID,18.9003,VALID,115,VALID,0,
2008-03-21, 01:32:01,VALID,915.047,VALID,0,VALID,100,VALID,0.0509425,VALID,18.8931,VALID,115,VALID,0.117188,
2008-03-21, 01:33:01,VALID,915.033,VALID,0,VALID,100,VALID,0.0339617,VALID,18.8905,VALID,115,VALID,0,
2008-03-21, 01:34:01,VALID,915.028,VALID,0,VALID,100,VALID,-0.0169808,VALID,18.8818,VALID,115,VALID,0,
2008-03-21, 01:35:01,VALID,915.011,VALID,0,VALID,100,VALID,-0.0339617,VALID,18.8885,VALID,115,VALID,0,
2008-03-21, 01:36:01,VALID,914.992,VALID,0,VALID,100,VALID,-0.0509425,VALID,18.885,VALID,115,VALID,0,
2008-03-21, 01:37:01,VALID,914.983,VALID,0,VALID,100,VALID,-0.0509425,VALID,18.8755,VALID,115,VALID,0,
2008-03-21, 01:38:00,VALID,914.96,VALID,0,VALID,100,VALID,-0.0679233,VALID,18.8299,VALID,115,VALID,0,
2008-03-21, 01:39:00,VALID,914.943,VALID,0,VALID,100,VALID,-0.0679233,VALID,18.7775,VALID,115,VALID,0,
2008-03-21, 01:40:00,VALID,914.953,VALID,0,VALID,100,VALID,-0.0339617,VALID,18.7815,VALID,115,VALID,0,
2008-03-21, 01:41:00,VALID,914.932,VALID,0,VALID,100,VALID,-0.0339617,VALID,18.7553,VALID,115,VALID,0,
2008-03-21, 01:42:00,VALID,914.931,VALID,0,VALID,100,VALID,-0.0169808,VALID,18.7455,VALID,115,VALID,0,
2008-03-21, 01:43:00,VALID,914.91,VALID,0,VALID,100,VALID,-0.0849042,VALID,18.7458,VALID,115,VALID,0,
2008-03-21, 01:44:00,VALID,914.886,VALID,0,VALID,100,VALID,-0.0339617,VALID,18.7096,VALID,115,VALID,0.112043,
2008-03-21, 01:45:00,VALID,914.867,VALID,0,VALID,100,VALID,-0.0339617,VALID,18.7031,VALID,115,VALID,0.905506,
2008-03-21, 01:46:00,VALID,914.85,VALID,0,VALID,100,VALID,-0.0509425,VALID,18.6999,VALID,115,VALID,0.879764,
2008-03-21, 01:47:00,VALID,914.829,VALID,0,VALID,100,VALID,0,VALID,18.6936,VALID,115,VALID,1.18732,
2008-03-21, 01:48:00,VALID,914.812,VALID,0,VALID,100,VALID,0.0169808,VALID,18.6997,VALID,115,VALID,1.08412,
2008-03-21, 01:49:00,VALID,914.811,VALID,0,VALID,100,VALID,0.0509425,VALID,18.6952,VALID,118,VALID,1.13009,
2008-03-21, 01:50:00,VALID,914.779,VALID,0,VALID,100,VALID,0.0679233,VALID,18.7179,VALID,119,VALID,0.930051,
2008-03-21, 01:51:00,VALID,914.763,VALID,0,VALID,100,VALID,0.0679233,VALID,18.7182,VALID,115,VALID,0.995066,
2008-03-21, 01:52:00,VALID,914.745,VALID,0,VALID,100,VALID,0.0339617,VALID,18.7152,VALID,109,VALID,0.803486,
2008-03-21, 01:53:00,VALID,914.742,VALID,0,VALID,100,VALID,-0.118866,VALID,18.711,VALID,109,VALID,0.33457,
2008-03-21, 01:54:00,VALID,914.728,VALID,0,VALID,100,VALID,-0.135847,VALID,18.7078,VALID,109,VALID,0.289253,
2008-03-21, 01:55:00,VALID,914.705,VALID,0,VALID,100,VALID,-0.135847,VALID,18.734,VALID,105,VALID,0.648615,
2008-03-21, 01:56:00,VALID,914.703,VALID,0,VALID,100,VALID,-0.101885,VALID,18.7694,VALID,105,VALID,0.276228,
2008-03-21, 01:57:00,VALID,914.693,VALID,0,VALID,100,VALID,-0.152827,VALID,18.7757,VALID,105,VALID,0,
2008-03-21, 01:58:00,VALID,914.672,VALID,0,VALID,100,VALID,-0.135847,VALID,18.7859,VALID,105,VALID,0,
2008-03-21, 01:59:00,VALID,914.67,VALID,0,VALID,100,VALID,-0.135847,VALID,18.7887,VALID,105,VALID,0,
2008-03-21, 02:00:00,VALID,914.663,VALID,0,VALID,100,VALID,-0.135847,VALID,18.7891,VALID,105,VALID,0,
2008-03-21, 02:01:00,VALID,914.648,VALID,0,VALID,100,VALID,-0.135847,VALID,18.7817,VALID,105,VALID,0,
2008-03-21, 02:02:00,VALID,914.632,VALID,0,VALID,100,VALID,-0.135847,VALID,18.7889,VALID,105,VALID,0,
2008-03-21, 02:03:00,VALID,914.626,VALID,0,VALID,100,VALID,-0.0679233,VALID,18.7585,VALID,105,VALID,0,
2008-03-21, 02:04:00,VALID,914.619,VALID,0,VALID,100,VALID,-0.0169808,VALID,18.7261,VALID,105,VALID,0,
2008-03-21, 02:05:00,VALID,914.598,VALID,0,VALID,100,VALID,0,VALID,18.739,VALID,105,VALID,0,
2008-03-21, 02:06:00,VALID,914.595,VALID,0,VALID,100,VALID,-0.0169808,VALID,18.7652,VALID,105,VALID,0,
2008-03-21, 02:07:00,VALID,914.599,VALID,0,VALID,100,VALID,-0.0339617,VALID,18.7775,VALID,105,VALID,0,
2008-03-21, 02:08:00,VALID,914.594,VALID,0,VALID,100,VALID,-0.0169808,VALID,18.7875,VALID,105,VALID,0,
2008-03-21, 02:09:00,VALID,914.597,VALID,0,VALID,100,VALID,-0.0339617,VALID,18.787,VALID,105,VALID,0,
2008-03-21, 02:10:00,VALID,914.599,VALID,0,VALID,100,VALID,-0.0339617,VALID,18.7909,VALID,105,VALID,0,
2008-03-21, 02:11:00,VALID,914.59,VALID,0,VALID,100,VALID,-0.0169808,VALID,18.7872,VALID,105,VALID,0,
2008-03-21, 02:12:00,VALID,914.576,VALID,0,VALID,100,VALID,0,VALID,18.7932,VALID,105,VALID,0,
2008-03-21, 02:13:00,VALID,914.57,VALID,0,VALID,100,VALID,-0.0339617,VALID,18.8194,VALID,105,VALID,0,
2008-03-21, 02:14:00,VALID,914.563,VALID,0,VALID,100,VALID,0,VALID,18.8294,VALID,105,VALID,0,
2008-03-21, 02:15:00,VALID,914.555,VALID,0,VALID,100,VALID,-0.0509425,VALID,18.8459,VALID,105,VALID,0,
2008-03-21, 02:16:00,VALID,914.555,VALID,0,VALID,100,VALID,0,VALID,18.8521,VALID,105,VALID,0,
2008-03-21, 02:17:00,VALID,914.549,VALID,0,VALID,100,VALID,-0.0339617,VALID,18.8491,VALID,105,VALID,0,
2008-03-21, 02:18:00,VALID,914.542,VALID,0,VALID,100,VALID,-0.0339617,VALID,18.8526,VALID,105,VALID,0,
2008-03-21, 02:19:00,VALID,914.547,VALID,0,VALID,100,VALID,0.0339617,VALID,18.8326,VALID,105,VALID,0,
2008-03-21, 02:20:00,VALID,914.537,VALID,0,VALID,100,VALID,0.0169808,VALID,18.8065,VALID,105,VALID,0,
2008-03-21, 02:21:00,VALID,914.54,VALID,0,VALID,100,VALID,-0.0169808,VALID,18.7974,VALID,105,VALID,0,
2008-03-21, 02:22:00,VALID,914.537,VALID,0,VALID,100,VALID,0.0169808,VALID,18.7678,VALID,105,VALID,0,
2008-03-21, 02:23:00,VALID,914.539,VALID,0,VALID,100,VALID,-0.0169808,VALID,18.7258,VALID,105,VALID,0,
2008-03-21, 02:24:00,VALID,914.528,VALID,0,VALID,100,VALID,-0.0339617,VALID,18.6869,VALID,105,VALID,0,
2008-03-21, 02:25:00,VALID,914.538,VALID,0,VALID,100,VALID,-0.0339617,VALID,18.664,VALID,105,VALID,0,
2008-03-21, 02:26:00,VALID,914.54,VALID,0,VALID,100,VALID,-0.0339617,VALID,18.6774,VALID,105,VALID,0,
2008-03-21, 02:27:00,VALID,914.539,VALID,0,VALID,100,VALID,0.0169808,VALID,18.6969,VALID,105,VALID,0,
2008-03-21, 02:28:00,VALID,914.529,VALID,0,VALID,100,VALID,0,VALID,18.6934,VALID,105,VALID,0,
2008-03-21, 02:29:00,VALID,914.534,VALID,0,VALID,100,VALID,-0.0169808,VALID,18.6573,VALID,105,VALID,0,
2008-03-21, 02:30:00,VALID,914.53,VALID,0,VALID,100,VALID,-0.0339617,VALID,18.6091,VALID,105,VALID,0,
2008-03-21, 02:31:00,VALID,914.531,VALID,0,VALID,100,VALID,-0.0169808,VALID,18.5801,VALID,105,VALID,0,
2008-03-21, 02:32:00,VALID,914.536,VALID,0,VALID,100,VALID,0,VALID,18.5599,VALID,105,VALID,0,
2008-03-21, 02:33:00,VALID,914.52,VALID,0,VALID,100,VALID,0,VALID,18.5634,VALID,105,VALID,0,
2008-03-21, 02:34:00,VALID,914.541,VALID,0,VALID,100,VALID,-0.0169808,VALID,18.5799,VALID,105,VALID,0,
2008-03-21, 02:35:00,VALID,914.532,VALID,0,VALID,100,VALID,-0.0339617,VALID,18.5894,VALID,105,VALID,0,
2008-03-21, 02:36:00,VALID,914.535,VALID,0,VALID,100,VALID,-0.0339617,VALID,18.6093,VALID,105,VALID,0,
2008-03-21, 02:37:00,VALID,914.533,VALID,0,VALID,100,VALID,0,VALID,18.6121,VALID,105,VALID,0,
2008-03-21, 02:38:00,VALID,914.545,VALID,0,VALID,100,VALID,-0.0339617,VALID,18.6158,VALID,105,VALID,0,
2008-03-21, 02:39:00,VALID,914.542,VALID,0,VALID,100,VALID,-0.0169808,VALID,18.5991,VALID,105,VALID,0,
2008-03-21, 02:40:00,VALID,914.547,VALID,0,VALID,100,VALID,-0.0169808,VALID,18.5729,VALID,105,VALID,0,
2008-03-21, 02:41:00,VALID,914.544,VALID,0,VALID,100,VALID,0.0169808,VALID,18.5537,VALID,105,VALID,0,
2008-03-21, 02:42:00,VALID,914.538,VALID,0,VALID,100,VALID,0,VALID,18.531,VALID,105,VALID,0,
2008-03-21, 02:43:00,VALID,914.527,VALID,0,VALID,100,VALID,0,VALID,18.5173,VALID,105,VALID,0,
2008-03-21, 02:44:00,VALID,914.514,VALID,0,VALID,100,VALID,0,VALID,18.5148,VALID,105,VALID,0,
2008-03-21, 02:45:00,VALID,914.506,VALID,0,VALID,100,VALID,0,VALID,18.5148,VALID,115,VALID,0.463796,
2008-03-21, 02:46:00,VALID,914.493,VALID,0,VALID,100,VALID,0,VALID,18.5572,VALID,143,VALID,0.708398,
2008-03-21, 02:47:00,VALID,914.484,VALID,0,VALID,100,VALID,-0.0169808,VALID,18.5699,VALID,143,VALID,0.173047,
2008-03-21, 02:48:00,VALID,914.468,VALID,0,VALID,100,VALID,-0.0169808,VALID,18.5664,VALID,143,VALID,0.179514,
2008-03-21, 02:49:00,VALID,914.474,VALID,0,VALID,100,VALID,-0.0169808,VALID,18.55,VALID,143,VALID,0,
2008-03-21, 02:50:00,VALID,914.465,VALID,0,VALID,100,VALID,0,VALID,18.5437,VALID,142,VALID,0,
2008-03-21, 02:51:00,VALID,914.469,VALID,0,VALID,100,VALID,-0.0169808,VALID,18.5372,VALID,143,VALID,0,
2008-03-21, 02:52:00,VALID,914.463,VALID,0,VALID,100,VALID,-0.0169808,VALID,18.5315,VALID,143,VALID,0.317769,
2008-03-21, 02:53:00,VALID,914.469,VALID,0,VALID,100,VALID,0.0169808,VALID,18.5372,VALID,143,VALID,0.749814,
2008-03-21, 02:54:00,VALID,914.462,VALID,0,VALID,100,VALID,0,VALID,18.5275,VALID,138,VALID,0.65263,
2008-03-21, 02:55:00,VALID,914.454,VALID,0,VALID,100,VALID,0,VALID,18.531,VALID,140,VALID,0.734756,
2008-03-21, 02:56:00,VALID,914.454,VALID,0,VALID,100,VALID,0.0169808,VALID,18.5275,VALID,140,VALID,0.477805,
2008-03-21, 02:57:00,VALID,914.461,VALID,0,VALID,100,VALID,0,VALID,18.4921,VALID,139,VALID,0.260231,
2008-03-21, 02:58:00,VALID,914.443,VALID,0,VALID,100,VALID,0,VALID,18.4694,VALID,135,VALID,0,
2008-03-21, 02:59:00,VALID,914.447,VALID,0,VALID,100,VALID,0,VALID,18.4661,VALID,134,VALID,0,
2008-03-21, 03:00:00,VALID,914.451,VALID,0,VALID,100,VALID,0,VALID,18.4731,VALID,134,VALID,0,
2008-03-21, 03:01:00,VALID,914.438,VALID,0,VALID,100,VALID,0,VALID,18.4532,VALID,131,VALID,0,
2008-03-21, 03:02:00,VALID,914.441,VALID,0,VALID,100,VALID,0,VALID,18.4339,VALID,130,VALID,0,
2008-03-21, 03:03:00,VALID,914.433,VALID,0,VALID,100,VALID,0.0169808,VALID,18.4172,VALID,124,VALID,0,
2008-03-21, 03:04:00,VALID,914.434,VALID,0,VALID,100,VALID,0,VALID,18.4043,VALID,122,VALID,0,
2008-03-21, 03:05:00,VALID,914.43,VALID,0,VALID,100,VALID,0,VALID,18.401,VALID,122,VALID,0,
2008-03-21, 03:06:00,VALID,914.428,VALID,0,VALID,100,VALID,-0.0169808,VALID,18.3749,VALID,122,VALID,0.383789,
2008-03-21, 03:07:00,VALID,914.436,VALID,0,VALID,100,VALID,0,VALID,18.3721,VALID,122,VALID,0.625977,
2008-03-21, 03:08:00,VALID,914.439,VALID,0,VALID,100,VALID,0,VALID,18.3688,VALID,122,VALID,0.015253,
2008-03-21, 03:09:00,VALID,914.448,VALID,0,VALID,100,VALID,-0.0169808,VALID,18.3658,VALID,122,VALID,0.652699,
2008-03-21, 03:10:00,VALID,914.455,VALID,0,VALID,100,VALID,0,VALID,18.3783,VALID,122,VALID,0.723656,
2008-03-21, 03:11:00,VALID,914.453,VALID,0,VALID,100,VALID,0.0169808,VALID,18.3658,VALID,122,VALID,0.291406,
2008-03-21, 03:12:00,VALID,914.467,VALID,0,VALID,100,VALID,-0.0169808,VALID,18.3786,VALID,122,VALID,0.296503,
2008-03-21, 03:13:00,VALID,914.48,VALID,0,VALID,100,VALID,-0.0169808,VALID,18.379,VALID,122,VALID,0,
2008-03-21, 03:14:00,VALID,914.483,VALID,0,VALID,100,VALID,0,VALID,18.3753,VALID,122,VALID,0,
2008-03-21, 03:15:00,VALID,914.497,VALID,0,VALID,100,VALID,-0.0169808,VALID,18.3823,VALID,122,VALID,0,
2008-03-21, 03:16:00,VALID,914.5,VALID,0,VALID,100,VALID,-0.0169808,VALID,18.3911,VALID,122,VALID,0.0168269,
2008-03-21, 03:17:00,VALID,914.508,VALID,0,VALID,100,VALID,-0.0169808,VALID,18.4142,VALID,122,VALID,0,
2008-03-21, 03:18:00,VALID,914.501,VALID,0,VALID,100,VALID,-0.0169808,VALID,18.4212,VALID,122,VALID,0,
2008-03-21, 03:19:00,VALID,914.497,VALID,0,VALID,100,VALID,-0.0339617,VALID,18.4147,VALID,122,VALID,0,
2008-03-21, 03:20:00,VALID,914.488,VALID,0,VALID,100,VALID,-0.0169808,VALID,18.392,VALID,122,VALID,0,
2008-03-21, 03:21:00,VALID,914.496,VALID,0,VALID,100,VALID,-0.0339617,VALID,18.3885,VALID,122,VALID,0,
2008-03-21, 03:22:00,VALID,914.484,VALID,0,VALID,100,VALID,-0.0169808,VALID,18.3885,VALID,122,VALID,0,
2008-03-21, 03:23:00,VALID,914.492,VALID,0,VALID,100,VALID,0,VALID,18.398,VALID,139,VALID,0,
2008-03-21, 03:24:00,VALID,914.486,VALID,0,VALID,100,VALID,-0.0169808,VALID,18.4242,VALID,150,VALID,0.0369318,
2008-03-21, 03:25:00,VALID,914.48,VALID,0,VALID,100,VALID,-0.0169808,VALID,18.4636,VALID,152,VALID,0.216493,
2008-03-21, 03:26:00,VALID,914.487,VALID,0,VALID,100,VALID,-0.0169808,VALID,18.4694,VALID,152,VALID,0,
2008-03-21, 03:27:00,VALID,914.495,VALID,0,VALID,100,VALID,-0.0169808,VALID,18.5148,VALID,152,VALID,0,
2008-03-21, 03:28:00,VALID,914.494,VALID,0,VALID,100,VALID,-0.0169808,VALID,18.5479,VALID,149,VALID,0,
2008-03-21, 03:29:00,VALID,914.486,VALID,0,VALID,100,VALID,0,VALID,18.5572,VALID,138,VALID,0,
2008-03-21, 03:30:00,VALID,914.494,VALID,0,VALID,100,VALID,0,VALID,18.5345,VALID,138,VALID,0,
2008-03-21, 03:31:00,VALID,914.494,VALID,0,VALID,100,VALID,-0.0169808,VALID,18.4826,VALID,138,VALID,0,
2008-03-21, 03:32:00,VALID,914.5,VALID,0,VALID,100,VALID,-0.0169808,VALID,18.4532,VALID,138,VALID,0,
2008-03-21, 03:33:00,VALID,914.489,VALID,0,VALID,100,VALID,-0.0509425,VALID,18.4145,VALID,138,VALID,0,
2008-03-21, 03:34:00,VALID,914.468,VALID,0,VALID,100,VALID,-0.101885,VALID,18.3996,VALID,138,VALID,0,
2008-03-21, 03:35:00,VALID,914.455,VALID,0,VALID,100,VALID,-0.118866,VALID,18.468,VALID,138,VALID,0,
2008-03-21, 03:36:00,VALID,914.431,VALID,0,VALID,100,VALID,-0.101885,VALID,18.4997,VALID,138,VALID,0,
2008-03-21, 03:37:00,VALID,914.417,VALID,0,VALID,100,VALID,-0.118866,VALID,18.5421,VALID,138,VALID,0,
2008-03-21, 03:38:00,VALID,914.407,VALID,0,VALID,100,VALID,-0.101885,VALID,18.5878,VALID,138,VALID,0.253205,
2008-03-21, 03:39:00,VALID,914.391,VALID,0,VALID,100,VALID,-0.101885,VALID,18.6135,VALID,135,VALID,0.479514,
2008-03-21, 03:40:00,VALID,914.376,VALID,0,VALID,100,VALID,-0.135847,VALID,18.6135,VALID,133,VALID,0.386052,
2008-03-21, 03:41:00,VALID,914.376,VALID,0,VALID,100,VALID,-0.101885,VALID,18.6038,VALID,130,VALID,0,
2008-03-21, 03:42:00,VALID,914.365,VALID,0,VALID,100,VALID,-0.186789,VALID,18.6142,VALID,117,VALID,0,
2008-03-21, 03:43:00,VALID,914.353,VALID,0,VALID,100,VALID,-0.118866,VALID,18.6429,VALID,113,VALID,0,
2008-03-21, 03:44:00,VALID,914.347,VALID,0,VALID,100,VALID,-0.135847,VALID,18.6619,VALID,109,VALID,0,
2008-03-21, 03:45:00,VALID,914.341,VALID,0,VALID,100,VALID,-0.152827,VALID,18.6886,VALID,109,VALID,0,
2008-03-21, 03:46:00,VALID,914.329,VALID,0,VALID,100,VALID,-0.101885,VALID,18.6751,VALID,115,VALID,0,
2008-03-21, 03:47:00,VALID,914.331,VALID,0,VALID,100,VALID,-0.152827,VALID,18.6721,VALID,122,VALID,0,
2008-03-21, 03:48:00,VALID,914.319,VALID,0,VALID,100,VALID,-0.0849042,VALID,18.6779,VALID,138,VALID,0,
2008-03-21, 03:49:00,VALID,914.32,VALID,0,VALID,100,VALID,0.101885,VALID,18.663,VALID,145,VALID,0,